Content
SEND FEEDBACK

Daily
Averages
Monthly
Summary
United States of America

VALLEY VIEW, TEXAS


Home > North America > United States > Texas
Elevation: 720 feet     Latitude: 33 29N     Longitude: 097 10W

WEATHER
 
SELECT A DAY
Number of Records: 243,157;   Date Range: 7/10/01 - 8/12/14
 
SHARE

PRINT THIS DATA

[ ← Previous Day ]
WEATHER ALMANAC - JANUARY 31, 2013
[ Next Day → ]
[ °C ]   °F
Weather ElementAverageHighLow
Temperature43.6 °F64.4 °F (1:15 pm)26.6 °F (5:15 am)
Dewpoint24.8 °F32 °F (9:35 am)19.4 °F (12:15 pm)
Humidity55 %87 % (8:15 am)19 % (3:55 pm)
Barometer30.18 in30.37 in (11:35 pm)30.09 in (3:15 pm)
Wind Speed7.9 mph19.6 mph (1:55 pm)
Wind Gust26.5 mph (8:15 pm)
Weather ElementAverage
Visibility10 mi
Wind DirectionSSE (141.5 °)

Weather ElementTotal
Precipitation---
Heating Degree Days19.5 (Base 65)
Averaged from 71 records on January 31, 2013
WEATHER CONDITIONS BREAKOUT
WIND DIRECTION BREAKOUT
WEATHER BY HOUR - JANUARY 31, 2013
[ °C ]   °F
Local TimeTemperatureDewpointHumidityBarometerVisibilityWind DirectionWind SpeedGust SpeedPrecipitationEventsConditions
12:35 AM32.0 °F23.0 °F69 %30.13 in10.0 miCalmClear
12:55 AM32.0 °F24.8 °F75 %30.13 in10.0 miCalmClear
1:15 AM32.0 °F23.0 °F69 %30.13 in10.0 miCalmClear
1:35 AM30.2 °F26.6 °F86 %30.12 in10.0 miCalmClear
1:55 AM28.4 °F24.8 °F86 %30.12 in10.0 miCalmClear
2:15 AM32.0 °F26.6 °F80 %30.12 in10.0 miCalmClear
2:35 AM30.2 °F24.8 °F80 %30.12 in10.0 miSSE (150°)4.6 mphClear
2:55 AM28.4 °F23.0 °F80 %30.12 in10.0 miSE (140°)5.8 mphClear
3:15 AM28.4 °F24.8 °F86 %30.12 in10.0 miSSE (150°)3.5 mphClear
3:35 AM32.0 °F24.8 °F75 %30.12 in10.0 miSSE (150°)3.5 mphClear
3:55 AM28.4 °F23.0 °F80 %30.12 in10.0 miSouth (170°)3.5 mphClear
4:15 AM28.4 °F23.0 °F80 %30.12 in10.0 miSouth (170°)5.8 mphClear
4:35 AM28.4 °F23.0 °F80 %30.12 in10.0 miSSE (160°)4.6 mphClear
4:55 AM28.4 °F23.0 °F80 %30.12 in10.0 miSouth (170°)3.5 mphClear
5:15 AM26.6 °F21.2 °F80 %30.13 in10.0 miSE (140°)3.5 mphClear
5:35 AM28.4 °F23.0 °F80 %30.13 in10.0 miCalmClear
5:55 AM28.4 °F23.0 °F80 %30.13 in10.0 miCalmClear
6:15 AM28.4 °F23.0 °F80 %30.13 in10.0 miCalmClear
6:35 AM32.0 °F23.0 °F69 %30.14 in10.0 miCalmClear
6:55 AM30.2 °F23.0 °F75 %30.14 in10.0 miCalmClear
7:15 AM26.6 °F23.0 °F86 %30.15 in10.0 miSSE (150°)4.6 mphClear
7:35 AM26.6 °F23.0 °F86 %30.15 in10.0 miSSE (160°)3.5 mphClear
7:55 AM28.4 °F23.0 °F80 %30.15 in10.0 miSSE (150°)3.5 mphClear
8:15 AM32.0 °F28.4 °F87 %30.15 in10.0 miSE (130°)3.5 mphClear
8:35 AM32.0 °F28.4 °F87 %30.15 in10.0 miCalmClear
8:55 AM33.8 °F28.4 °F81 %30.15 in10.0 miSE (140°)3.5 mphClear
9:15 AM35.6 °F28.4 °F75 %30.15 in10.0 miSSE (150°)3.5 mphClear
9:35 AM41.0 °F32.0 °F70 %30.15 in10.0 miCalmClear
9:55 AM44.6 °F32.0 °F61 %30.16 in10.0 miSouth (180°)4.6 mphClear
10:15 AM50.0 °F28.4 °F43 %30.16 in10.0 miSouth (170°)4.6 mphClear
10:35 AM50.0 °F28.4 °F43 %30.17 in10.0 miSSE (150°)4.6 mphClear
10:55 AM53.6 °F23.0 °F30 %30.18 in10.0 miSouth (190°)11.5 mphClear
11:15 AM55.4 °F23.0 °F29 %30.17 in10.0 miSSW (210°)11.5 mphClear
11:35 AM57.2 °F21.2 °F25 %30.17 in10.0 miSSW (210°)10.4 mphClear
11:55 AM59.0 °F21.2 °F23 %30.15 in10.0 miSSW (200°)11.5 mphClear
12:15 PM60.8 °F19.4 °F20 %30.15 in10.0 miSSW (200°)12.7 mphClear
12:35 PM60.8 °F21.2 °F22 %30.14 in10.0 miSSW (210°)13.8 mph18.4 mphClear
12:55 PM62.6 °F23.0 °F22 %30.12 in10.0 miSSW (210°)10.4 mphClear
1:15 PM64.4 °F23.0 °F21 %30.12 in10.0 miSSW (210°)16.1 mph20.7 mphClear
1:35 PM64.4 °F23.0 °F21 %30.12 in10.0 miSW (220°)18.4 mph24.2 mphClear
1:55 PM64.4 °F23.0 °F21 %30.12 in10.0 miSW (230°)19.6 mph24.2 mphClear
2:15 PM62.6 °F21.2 °F20 %30.12 in10.0 miSW (230°)17.3 mph25.3 mphClear
2:35 PM64.4 °F23.0 °F21 %30.11 in10.0 miSSW (200°)15.0 mph20.7 mphClear
2:55 PM64.4 °F23.0 °F21 %30.10 in10.0 miSSW (210°)12.7 mph18.4 mphClear
3:15 PM64.4 °F23.0 °F21 %30.09 in10.0 miSW (220°)10.4 mphClear
3:35 PM64.4 °F23.0 °F21 %30.09 in10.0 miSW (220°)12.7 mph17.3 mphClear
3:55 PM64.4 °F21.2 °F19 %30.10 in10.0 miWSW (240°)10.4 mph16.1 mphClear
4:15 PM64.4 °F21.2 °F19 %30.11 in10.0 miWSW (240°)9.2 mphClear
4:35 PM62.6 °F21.2 °F20 %30.12 in10.0 miWSW (250°)9.2 mphClear
4:55 PM60.8 °F23.0 °F23 %30.13 in10.0 miWSW (250°)5.8 mphClear
5:15 PM59.0 °F23.0 °F25 %30.15 in10.0 miWest (270°)4.6 mphClear
5:35 PM57.2 °F24.8 °F29 %30.16 in10.0 miWNW (290°)3.5 mphClear
5:55 PM55.4 °F26.6 °F33 %30.17 in10.0 miWNW (300°)6.9 mphClear
6:15 PM51.8 °F24.8 °F35 %30.18 in10.0 miNW (320°)8.1 mphClear
6:35 PM50.0 °F28.4 °F43 %30.20 in10.0 miNW (320°)9.2 mphClear
6:55 PM50.0 °F28.4 °F43 %30.21 in10.0 miNNW (330°)5.8 mphClear
7:15 PM46.4 °F28.4 °F50 %30.22 in10.0 miNNW (330°)9.2 mphClear
7:35 PM46.4 °F28.4 °F50 %30.23 in10.0 miNNW (340°)8.1 mphClear
7:55 PM50.0 °F28.4 °F43 %30.25 in10.0 miNorth (360°)16.1 mph21.9 mphClear
8:15 PM46.4 °F28.4 °F50 %30.28 in10.0 miNorth (10°)19.6 mph26.5 mphClear
8:35 PM44.6 °F30.2 °F57 %30.30 in10.0 miNNE (20°)16.1 mph21.9 mphClear
8:55 PM44.6 °F32.0 °F61 %30.32 in10.0 miNNE (30°)13.8 mphClear
9:15 PM42.8 °F30.2 °F61 %30.33 in10.0 miNNE (20°)12.7 mph17.3 mphClear
9:35 PM41.0 °F28.4 °F61 %30.34 in10.0 miNNE (30°)15.0 mph24.2 mphClear
9:55 PM37.4 °F28.4 °F70 %30.34 in10.0 miNorth (10°)13.8 mph21.9 mphClear
10:15 PM35.6 °F26.6 °F70 %30.35 in10.0 miNNE (30°)16.1 mph19.6 mphClear
10:35 PM35.6 °F26.6 °F70 %30.36 in10.0 miNNE (20°)15.0 mph20.7 mphClear
10:55 PM35.6 °F26.6 °F70 %30.35 in10.0 miNNE (30°)16.1 mph21.9 mphClear
11:15 PM33.8 °F23.0 °F65 %30.36 in10.0 miNNE (20°)16.1 mph24.2 mphClear
11:35 PM32.0 °F21.2 °F64 %30.37 in10.0 miNNE (20°)11.5 mph23.0 mphClear
11:55 PM32.0 °F21.2 °F64 %30.37 in10.0 miNNE (20°)12.7 mph21.9 mphClear
Hourly data recorded from KGLE, located miles away from Valley View, Texas







STORIES FROM OUR PARTNERS